PSLV R/B

基本信息
目录编号:
43287
目录名称:
PSLV R/B
国际标识:
2018-035B
轨道中心:
EARTH
物体状态:
在轨
发射日期:
2018-04-11 UTC
国别:
印度 (IN)
轨道信息
数据来源: 国际轨道数据
星历时间: 2026-07-12T23:46:20+0800
半长轴: 15008.291km
偏心率: 0.5604498
轨道倾角: 19.145°
近地点辐角: 251.946°
升交点赤经: 49.479°
平近点角: 41.722°
近地点: 218.76km
远地点: 17041.548km
周期: 304.970分钟
每日圈数: 4.721782
详细信息
发射场:
SRI
轨道高度:
LEO
数据来源:
AOE Integration Group
参考系:
TEME
时间系统:
UTC
历元类型:
SGP4
2D轨道图
3D轨道图
轨道高度分析图
轨道倾角分析图
轨道综合分析图
查看轨道综合分析图